Tracking 25703 objects as of 2-Jul-2022
HD Live streaming from Space Station
objects crossing your sky now

FLOCK 4EP 2

Track FLOCK 4EP 2 now!
10-day predictions
FLOCK 4EP 2 is classified as:


NORAD ID: 46820
Int'l Code: 2020-077H
Perigee: 499.1 km
Apogee: 515.0 km
Inclination: 97.4 °
Period: 94.6 minutes
Semi major axis: 6878 km
RCS: Unknown
Launch date: October 28, 2020
Source: United States (US)
Launch site: Rocket Lab Launch Complex (RLLC)
aabbcc
Your satellite tracking list
Your tracking list is empty




NASA's NSSDC Master Catalog

Two Line Element Set (TLE):
1 46820U 20077H   22183.50555547  .00006586  00000-0  29134-3 0  9995
2 46820  97.4260 247.0921 0011539 333.4023  26.6619 15.21959909 92812
Source of the keplerian elements: AFSPC